User: anonymous   Login
Location: Mactaquac Provincial Park
(45.9573°N, 66.8897°W)
Time: 12:07:11
(UTC-03:00)
Language:

CENTAUR R/B - Orbit

View from above orbital plane
View from above orbital plane
View from above satellite
View from above satellite

Ground track
Ground track

The orbit data is extracted from the following two-line orbital elements,

1 26906U 01040B   14298.81821987 0.00000200  00000-0  27794-3 0    03
2 26906  63.4645 286.2241 0269000 345.1362  14.8638 13.43923175    07
Epoch (UTC): 25 October 2014 19:38:14
Eccentricity: 0.0269000
inclination: 63.4645°
perigee height: 893 km
apogee height: 1296 km
right ascension of ascending node: 286.2241°
argument of perigee: 345.1362°
revolutions per day: 13.43923175
mean anomaly at epoch: 14.8638°
orbit number at epoch: 0

The dashed part of the orbit path shows where the satellite is in the earth's shadow,  

DLR